www.pogodaiklimat.ru

Погода и климат >> Архив погоды >> Россия >> Ямало-Ненецкий АО >> Белоярск


ПОГОДА в Белоярске

  • Прогноз погоды в Белоярске
  • Монитор погоды в Белоярске
  • Климат города

АРХИВ ПОГОДЫ в Белоярске

Время (UTC), дата Ветер
(напр.,м/с)
 
Видим.   Явления Облачность Т
(С)
Тd
(С)
f
(%)
Тe
(С)
Тes
(С)
Комфортность P
(гПа)
Po
(гПа)
Тmin
(С)
Tmax
(С)
R
(мм)
R24
(мм)
S
(см)
06 9.12 ЮЗ 2 н/о н/о -16.2 -17.3 91 -21 -21 1019.7 1014.9 -17.7
09 9.12 ЮЗ 1 н/о н/о -17.1 -18.5 89 -20 -20 1019.7 1014.9
12 9.12 З 2 н/о н/о -13.7 -14.5 94 -18 -18 1019.1 1014.4
15 9.12 ЮЗ 2 н/о н/о -9.8 -9.9 99 -14 -14 1018.0 1013.4 -10.0 2
18 9.12 ЮЗ 5 н/о н/о -10.0 -10.0 100 -18 -18 1016.7 1012.1
21 9.12 ЮЗ 4 н/о н/о -10.1 -10.4 98 -17 -17 1017.0 1012.4
00 10.12 З 4 н/о н/о -11.2 -11.7 96 -18 -18 1017.3 1012.7
03 10.12 З 4 н/о н/о -12.3 -13.0 94 -19 -19 1017.3 1012.6 -12.3 0.2
06 10.12 ЮЗ 3 н/о н/о -13.9 -15.0 91 -20 -20 1017.6 1012.9 -13.6
09 10.12 ЮЗ 3 н/о н/о -14.8 -15.8 92 -21 -21 1018.6 1013.9
12 10.12 Ю 3 н/о н/о -16.5 -17.7 90 -23 -23 1019.0 1014.3
18 10.12 ЮЗ 2 н/о н/о -14.9 -16.0 91 -20 -20 1018.6 1013.9
21 10.12 ЮЗ 1 н/о н/о -14.7 -16.0 90 -17 -17 1018.8 1014.1
00 11.12 З 1 н/о н/о -12.6 -13.2 95 -15 -15 1018.4 1013.7
03 11.12 ЮЗ 4 н/о н/о -9.8 -9.9 99 -17 -17 1017.9 1013.3 -18.1 2
06 11.12 ЮЗ 3 н/о н/о -9.5 -9.5 100 -16 -16 1017.4 1012.8
09 11.12 З 3 н/о н/о -8.5 -8.6 99 -14 -14 1016.9 1012.4
12 11.12 З 3 н/о н/о -8.0 -8.1 99 -14 -14 1016.3 1011.7
15 11.12 З 3 н/о н/о -8.5 -8.5 100 -14 -14 1015.8 1011.2 -8.0 0.2
18 11.12 З 2 н/о н/о -9.3 -9.4 99 -14 -14 1015.8 1011.2
21 11.12 В 2 н/о н/о -8.8 -8.9 99 -13 -13 1016.4 1011.8
00 12.12 З 2 н/о н/о -8.6 -8.6 100 -13 -13 1016.7 1012.1
03 12.12 СЗ 2 н/о н/о -7.1 -7.1 100 -12 -12 1017.1 1012.5 -9.4 1
06 12.12 СЗ 2 н/о н/о -6.3 -6.3 100 -11 -11 1017.2 1012.6
09 12.12 З 3 н/о н/о -6.7 -6.8 99 -13 -13 1016.7 1012.2
12 12.12 СЗ 3 н/о н/о -7.8 -7.9 99 -14 -14 1016.2 1011.6
15 12.12 З 1 н/о н/о -9.7 -9.7 100 -12 -12 1016.1 1011.5 -5.5 0.9
18 12.12 З 3 н/о н/о -11.5 -11.7 98 -17 -17 1015.2 1010.6
21 12.12 З 4 н/о н/о -12.8 -13.3 96 -20 -20 1014.1 1009.4
00 13.12 ЮЗ 5
{11}
н/о н/о -8.7 -10.2 89 -16 -16 1012.0 1007.5
03 13.12 З 9
{13}
н/о н/о -7.3 -7.5 98 -17 -17 1010.1 1005.5 -13.0 4
06 13.12 СЗ 4
{12}
н/о н/о -6.2 -6.3 99 -13 -13 1012.5 1008.0
09 13.12 З 5
{12}
н/о н/о -10.1 -12.5 83 -18 -18 1015.9 1011.3
12 13.12 СЗ 5 н/о н/о -12.7 -16.2 75 -21 -21 1018.5 1013.8
15 13.12 ЮЗ 4 н/о н/о -15.7 -18.4 80 -24 -24 1017.6 1012.9 -5.5 2
18 13.12 ЮЗ 4
{12}
н/о н/о -10.6 -13.0 82 -18 -18 1011.7 1007.1
21 13.12 Ю 9-19
{14}
н/о н/о -6.6 -7.1 96 -16 -16 1004.1 999.6
00 14.12 З 9
{19}
н/о н/о -1.2 -1.8 96 -10 -10 1001.9 997.5
03 14.12 З 10
{16}
н/о н/о -1.6 -2.9 91 -10 -10 1001.6 997.2 -15.7 3
06 14.12 З 9
{16}
н/о н/о -1.5 -3.9 84 -10 -10 1001.3 996.9
09 14.12 СЗ 14-18
{20}
н/о н/о +1.1 -2.5 77 -8 -8 1002.0 997.6
12 14.12 З 13
{20}
н/о н/о +0.5 -3.1 77 -8 -8 1004.0 999.7
15 14.12 В 5
{17}
н/о н/о -4.0 -6.1 85 -11 -11 1006.8 1002.4 +1.6 1
18 14.12 З 1 н/о н/о -4.9 -6.6 88 -7 -7 1008.3 1003.8
21 14.12 З 2 н/о н/о -5.5 -5.5 100 -10 -10 1009.0 1004.5

 

Местоположение метеостанции Белоярск (Ямало-Ненецкий АО, Россия): широта 66.87 долгота 68.13 высота над уровнем моря 35 м.

В архиве по умолчанию представлена погода в Белоярске за последнюю неделю. Архивные данные за месяц целиком и за предыдущие месяцы, начиная с января 2011 года, Вы можете получить, выбрав интересующий диапазон дат из раскрывающегося списка и нажав кнопку "Ввод!".


*Определитесь, кто Вы:
робот инопланетянин человек

Внимание! Время в таблицах - всемирное. Для получения местного времени необходимо прибавить поправку, которая в Белоярске равна 5 ч.

Смотрите также архив погоды в соседних городах и на ближайших метеорологических станциях:

Погода в Салехарде (Ямало-Ненецкий АО, Россия) (75 км)
Погода в Полуе (Ямало-Ненецкий АО, Россия) (97 км)
Погода в Харпе (Ямало-Ненецкий АО, Россия) (103 км)
Погода в Питляре (Ямало-Ненецкий АО, Россия) (152 км)
Погода в Елецкой (Коми, Россия) (178 км)
Погода в Воркуте (Коми, Россия) (192 км)
Погода в Ныде (Ямало-Ненецкий АО, Россия) (212 км)
Погода в Новом Порте (Ямало-Ненецкий АО, Россия) (223 км)
Погода в Мужах (Ямало-Ненецкий АО, Россия) (226 км)
Погода в Надыме (Ямало-Ненецкий АО, Россия) (257 км)

Пояснения к столбцам:

Ветер - указаны скорость ветра в м/с - средняя за 10 мин, порывы в срок и между сроками (в фигурных скобках) и направление, откуда дует ветер: С - северный, СВ - северо-восточный, В - восточный, ЮВ - юго-восточный, Ю - южный, ЮЗ - юго-западный, З - западный, СЗ - северо-западный.
Видимость - горизонтальная дальность видимости в метрах или километрах. При видимости от 1 до 10 км при отсутствии осадков обычно наблюдается дымка, при ухудшении видимости до 1 км и менее - туман. В сухую погоду видимость может ухудшаться дымом, пылью или мглою.
Явления - указаны атмосферные явления, наблюдавшиеся в срок или в последний час перед сроком; фигурными скобками обозначены явления, наблюдавшиеся между сроками (за 1-3 часа до срока); квадратными скобками обозначены град или гололедные отложения с указанием их диаметра в мм.
Облачность - указаны через наклонную черту общая и нижняя облачность в баллах и высота нижней границы облаков в метрах; квадратными скобками обозначены формы облаков: Ci - перистые, Cs - перисто-слоистые, Cc - перисто-кучевые, Ac - высококучевые, As - высокослоистые, Sc - слоисто-кучевые, Ns - слоисто-дождевые, Cu - кучевые, Cb - кучево-дождевые. Подробнее классификацию облаков см. в Атласе облаков (PDF).
T - Температура воздуха - температура, измеренная на высоте 2 м над землей.
Td - Температура точки росы - температура, при понижении до которой содержащийся в воздухе водяной пар достигнет насыщения.
f - Относительная влажность воздуха - влажноcть воздуха, измеренная на высоте 2 м над землей.
Te - Эффективная температура - температура, которую ощущает одетый по сезону человек в тени. Характеристика душности погоды. При расчете учитывается влияние влажности воздуха и скорости ветра на теплоощущения человека.
Tes - Эффективная температура на солнце - температура, которую ощущает человек, с поправкой на солнечный нагрев. Характеристика знойности погоды. Зависит от высоты солнца над горизонтом, облачности и скорости ветра. Ночью, в пасмурную погоду, а также при ветре 12 м/с и более поправка равна нулю.
P - Атмосферное давление - приведенное к уровню моря атмосферное давление.
Po - Атмосферное давление - измеренное на уровне метеостанции атмосферное давление.
Tmin - Минимальная температура - минимум температуры воздуха на высоте 2 м над землей.
Tmax - Максимальная температура - максимум температуры воздуха на высоте 2 м над землей.
R - Количество осадков - Количество выпавших осадков за период времени, мм. При наведении курсора мыши на число - период времени, за который выпало указанное количество осадков.
R24 - Количество осадков - Количество выпавших осадков за 24 часа, мм.
S - Снежный покров - Высота снежного покрова, см. При наведении курсора мыши на число - состояние снежного покрова и степень покрытия местности в баллах.